Date String (YYYY-MM-DD hh:mm:ss) UTC,Instrument flags,Ambient pressure (hPa),Sample flow (lpm),Bypass flow (lpm),Sample temperature (°C),Ambient temperature (°C),ASC tube jacket temperature (°C),LED temperature (°C),Box temperature (°C),Sample RH (%),Span deviation,Mass concentration (μg/m³),Mass concentration (μg/m³),Mass concentration (μg/m³)
DateTimeUTC,F1_M11,P_M11,Q1_M11,Q2_M11,T1_M11,T2_M11,T3_M11,T4_M11,T5_M11,U1_M11,ZSPAN_M11,X0_M11,X2_M11,X1_M11
2021-11-28 08:00:00,,0831.7,4.99,0.00,23.5,22.5,00.0,32.6,25.2,13.7,0000.0,0005.98,0002.11,0001.22
2021-11-28 08:01:00,,0831.6,5.02,0.00,23.5,22.5,00.0,32.6,25.2,13.7,0000.0,0006.21,0002.13,0001.21
2021-11-28 08:02:00,,0831.7,4.99,0.00,23.5,22.5,00.0,32.6,25.2,13.7,0000.0,0005.85,0002.13,0001.21
2021-11-28 08:03:00,,0831.7,5.01,0.00,23.5,22.5,00.0,32.6,25.2,13.7,0000.0,0005.99,0002.10,0001.19
2021-11-28 08:04:00,,0831.7,5.00,0.00,23.5,22.5,00.0,32.6,25.2,13.7,0000.0,0006.19,0002.03,0001.17
2021-11-28 08:05:00,,0831.7,4.99,0.00,23.5,22.5,00.0,32.6,25.2,13.7,0000.0,0006.77,0001.96,0001.17
2021-11-28 08:06:00,,0831.7,5.01,0.00,23.5,22.5,00.0,32.6,25.2,13.7,0000.0,0006.66,0001.93,0001.15
2021-11-28 08:07:00,,0831.7,4.99,0.00,23.5,22.5,00.0,32.6,25.2,13.7,0000.0,0007.24,0001.99,0001.14
2021-11-28 08:08:00,,0831.8,5.00,0.00,23.5,22.5,00.0,32.6,25.2,13.7,0000.0,0007.42,0002.04,0001.14
2021-11-28 08:09:00,,0831.7,5.02,0.00,23.5,22.5,00.0,32.6,25.3,13.7,0000.0,0007.38,0002.04,0001.15
2021-11-28 08:10:00,,0831.7,4.99,0.00,23.5,22.5,00.0,32.5,25.3,13.7,0000.0,0006.96,0001.99,0001.15
2021-11-28 08:11:00,,0831.8,5.00,0.00,23.5,22.6,00.0,32.5,25.2,13.7,0000.0,0006.52,0001.97,0001.16
2021-11-28 08:12:00,,0831.8,5.01,0.00,23.5,22.6,00.0,32.5,25.2,13.7,0000.0,0005.52,0001.90,0001.17
2021-11-28 08:13:00,,0831.7,5.01,0.00,23.5,22.5,00.0,32.5,25.2,13.7,0000.0,0005.94,0001.98,0001.17
2021-11-28 08:14:00,,0831.7,4.99,0.00,23.5,22.5,00.0,32.5,25.2,13.7,0000.0,0005.78,0001.98,0001.18
2021-11-28 08:15:00,,0831.7,5.01,0.00,23.5,22.6,00.0,32.5,25.2,13.7,0000.0,0005.69,0001.97,0001.19
2021-11-28 08:16:00,,0831.7,4.99,0.00,23.5,22.6,00.0,32.5,25.2,13.7,0000.0,0005.12,0001.95,0001.20
2021-11-28 08:17:00,,0831.7,5.01,0.00,23.5,22.6,00.0,32.5,25.2,13.7,0000.0,0005.26,0002.01,0001.21
2021-11-28 08:18:00,,0831.7,4.99,0.00,23.5,22.6,00.0,32.5,25.2,13.7,0000.0,0004.64,0001.97,0001.23
2021-11-28 08:19:00,,0831.6,5.01,0.00,23.5,22.5,00.0,32.5,25.2,13.7,0000.0,0004.48,0001.99,0001.24
2021-11-28 08:20:00,,0831.6,5.00,0.00,23.5,22.5,00.0,32.5,25.2,13.7,0000.0,0005.10,0002.01,0001.25
2021-11-28 08:21:00,,0831.6,4.99,0.00,23.5,22.5,00.0,32.5,25.2,13.7,0000.0,0005.87,0002.04,0001.25
2021-11-28 08:22:00,,0831.7,5.02,0.00,23.5,22.5,00.0,32.5,25.1,13.7,0000.0,0005.96,0002.06,0001.25
2021-11-28 08:23:00,,0831.7,4.99,0.00,23.5,22.5,00.0,32.5,25.2,13.7,0000.0,0006.25,0002.17,0001.25
2021-11-28 08:24:00,,0831.7,5.00,0.00,23.4,22.5,00.0,32.5,25.1,13.7,0000.0,0005.91,0002.13,0001.26
2021-11-28 08:25:00,,0831.7,5.02,0.00,23.4,22.5,00.0,32.5,25.2,13.7,0000.0,0006.11,0002.17,0001.26
2021-11-28 08:26:00,,0831.8,5.00,0.00,23.5,22.5,00.0,32.5,25.2,13.7,0000.0,0005.88,0002.20,0001.26
2021-11-28 08:27:00,,0831.7,4.98,0.00,23.5,22.5,00.0,32.5,25.1,13.7,0000.0,0005.82,0002.24,0001.25
2021-11-28 08:28:00,,0831.6,5.01,0.00,23.4,22.5,00.0,32.5,25.1,13.8,0000.0,0005.88,0002.21,0001.24
2021-11-28 08:29:00,,0831.6,5.00,0.00,23.4,22.5,00.0,32.5,25.1,13.8,0000.0,0006.01,0002.23,0001.23
2021-11-28 08:30:00,,0831.6,4.99,0.00,23.4,22.5,00.0,32.5,25.1,13.8,0000.0,0006.24,0002.21,0001.23
2021-11-28 08:31:00,,0831.6,5.02,0.00,23.4,22.5,00.0,32.5,25.1,13.8,0000.0,0005.80,0002.17,0001.21
2021-11-28 08:32:00,,0831.7,5.00,0.00,23.4,22.5,00.0,32.5,25.1,13.8,0000.0,0005.23,0002.15,0001.21
2021-11-28 08:33:00,,0831.6,4.99,0.00,23.4,22.5,00.0,32.5,25.1,13.8,0000.0,0005.41,0002.16,0001.20
2021-11-28 08:34:00,,0831.6,4.99,0.00,23.4,22.5,00.0,32.5,25.1,13.8,0000.0,0005.37,0002.11,0001.20
2021-11-28 08:35:00,,0831.6,5.01,0.00,23.4,22.5,00.0,32.5,25.1,13.8,0000.0,0005.07,0002.03,0001.18
2021-11-28 08:36:00,,0831.7,5.00,0.00,23.4,22.5,00.0,32.5,25.2,13.8,0000.0,0004.80,0001.96,0001.17
2021-11-28 08:37:00,,0831.7,4.99,0.00,23.4,22.5,00.0,32.5,25.2,13.8,0000.0,0004.80,0001.96,0001.16
2021-11-28 08:38:00,,0831.7,5.01,0.00,23.4,22.5,00.0,32.5,25.1,13.8,0000.0,0004.95,0001.98,0001.17
2021-11-28 08:39:00,,0831.7,5.00,0.00,23.4,22.5,00.0,32.4,25.1,13.8,0000.0,0006.16,0002.03,0001.17
2021-11-28 08:40:00,,0831.6,5.01,0.00,23.4,22.5,00.0,32.4,25.1,13.8,0000.0,0006.60,0002.02,0001.16
2021-11-28 08:41:00,,0831.6,4.99,0.00,23.4,22.5,00.0,32.4,25.1,13.8,0000.0,0006.38,0002.00,0001.15
2021-11-28 08:42:00,,0831.5,4.99,0.00,23.4,22.4,00.0,32.4,25.1,13.8,0000.0,0006.09,0002.03,0001.16
2021-11-28 08:43:00,,0831.5,5.01,0.00,23.4,22.4,00.0,32.4,25.1,13.8,0000.0,0005.97,0002.06,0001.18
2021-11-28 08:44:00,,0831.5,5.01,0.00,23.4,22.5,00.0,32.4,25.1,13.8,0000.0,0005.85,0002.09,0001.19
2021-11-28 08:45:00,,0831.5,4.99,0.00,23.4,22.4,00.0,32.4,25.1,13.9,0000.0,0005.77,0002.07,0001.20
2021-11-28 08:46:00,,0831.5,5.00,0.00,23.4,22.4,00.0,32.4,25.1,13.9,0000.0,0005.91,0002.11,0001.20
2021-11-28 08:47:00,,0831.5,4.98,0.00,23.4,22.4,00.0,32.4,25.1,13.9,0000.0,0007.51,0002.19,0001.21
2021-11-28 08:48:00,,0831.5,5.01,0.00,23.4,22.5,00.0,32.4,25.1,13.9,0000.0,0007.84,0002.17,0001.23
2021-11-28 08:49:00,,0831.5,5.01,0.00,23.4,22.4,00.0,32.4,25.1,13.9,0000.0,0008.31,0002.17,0001.24
2021-11-28 08:50:00,,0831.5,4.99,0.00,23.4,22.4,00.0,32.4,25.1,13.9,0000.0,0008.32,0002.18,0001.23
2021-11-28 08:51:00,,0831.5,5.00,0.00,23.4,22.4,00.0,32.4,25.1,13.9,0000.0,0007.90,0002.15,0001.23
2021-11-28 08:52:00,,0831.5,5.01,0.00,23.4,22.4,00.0,32.4,25.1,13.9,0000.0,0008.00,0002.19,0001.25
2021-11-28 08:53:00,,0831.6,4.99,0.00,23.4,22.4,00.0,32.4,25.1,13.9,0000.0,0008.61,0002.18,0001.25
2021-11-28 08:54:00,,0831.6,5.01,0.00,23.4,22.4,00.0,32.4,25.1,13.8,0000.0,0008.51,0002.11,0001.23
2021-11-28 08:55:00,,0831.5,4.99,0.00,23.4,22.4,00.0,32.4,25.1,13.9,0000.0,0008.47,0002.10,0001.23
2021-11-28 08:56:00,,0831.5,5.00,0.00,23.3,22.4,00.0,32.4,25.1,13.9,0000.0,0009.16,0002.08,0001.23
2021-11-28 08:57:00,,0831.5,4.99,0.00,23.3,22.4,00.0,32.4,25.0,13.9,0000.0,0009.91,0002.07,0001.24
2021-11-28 08:58:00,,0831.5,5.01,0.00,23.3,22.4,00.0,32.4,25.1,13.9,0000.0,0009.83,0002.07,0001.24
2021-11-28 08:59:00,,0831.5,5.00,0.00,23.3,22.4,00.0,32.4,25.0,13.9,0000.0,0009.63,0002.10,0001.24
